Copper Harbor, MI

11:22 AM EDT on April 27, 2017 (GMT -0400)
Copper Harbor

Weather History for KP59 - November, 2012

Change the Weather History Date:

Saturday, November 17, 2012

  Actual Average Record
Temperature  
Mean Temperature 36 °F -  
Max Temperature 45 °F 37 °F 64 °F (2001)
Min Temperature 28 °F 28 °F 17 °F (2002)
Degree Days  
Heating Degree Days 28    
Moisture  
Dew Point 33 °F    
Average Humidity 78    
Maximum Humidity 92    
Minimum Humidity 68    
Precipitation  
Precipitation 0.00 in - - ()
Sea Level Pressure  
Sea Level Pressure 30.38 in    
Wind  
Wind Speed 7 mph (SW)    
Max Wind Speed 13 mph    
Max Gust Speed 23 mph    
Averages and records for this station are not official NWS values.
T = Trace of Precipitation, MM = Missing Value Source: NWS Daily Summary

Daily Weather History Graph

Daily Weather History Graph

Search for Another Location

Airport or City:

Trip Planner

Search our weather history database for the weather conditions in past years. The results will help you decide how hot, cold, wet, or windy it might be!

Date:

Astronomy

Nov. 17, 2012 Rise Set
Actual Time 7:59 AM EST 5:12 PM EST
Civil Twilight 7:26 AM EST 5:46 PM EST
Nautical Twilight 6:48 AM EST 6:24 PM EST
Astronomical Twilight 6:12 AM EST 7:00 PM EST
Moon 11:44 AM EST (11/17) 9:23 PM EST (11/17)
Length of Visible Light 10h 20m
Length of Day
9h 12m
Waxing Crescent, 20% of the Moon is Illuminated
Nov 17
Waxing Crescent
Nov 20
First Quarter
Nov 28
Full
Dec 6
Last Quarter
Dec 13
New

Hourly Weather History & Observations

Time (EST) Temp. Windchill Dew Point Humidity Pressure Visibility Wind Dir Wind Speed Gust Speed Precip Events Conditions
12:51 AM 32.0 °F - 27.0 °F 82% 30.45 in - Calm Calm - N/A   Unknown
1:51 AM 28.9 °F 23.9 °F 27.0 °F 92% 30.45 in - SW 4.6 mph - N/A   Unknown
2:51 AM 33.1 °F 27.7 °F 27.0 °F 78% 30.45 in - SW 5.8 mph - N/A   Unknown
3:51 AM 33.1 °F 26.1 °F 27.0 °F 78% 30.44 in - WSW 8.1 mph - N/A   Unknown
4:51 AM 33.1 °F 26.9 °F 28.0 °F 82% 30.43 in - SW 6.9 mph - N/A   Unknown
5:51 AM 34.0 °F 28.0 °F 28.9 °F 82% 30.43 in - WSW 6.9 mph - N/A   Unknown
6:51 AM 33.1 °F 26.9 °F 28.9 °F 85% 30.43 in - SW 6.9 mph - N/A   Unknown
7:51 AM 33.1 °F 24.4 °F 30.0 °F 89% 30.42 in - SW 11.5 mph - N/A   Unknown
8:51 AM 35.1 °F 26.9 °F 30.9 °F 85% 30.41 in - SW 11.5 mph 19.6 mph N/A   Unknown
9:51 AM 37.0 °F 28.9 °F 32.0 °F 82% 30.41 in - WSW 12.7 mph 19.6 mph N/A   Unknown
10:51 AM 41.0 °F 35.2 °F 34.0 °F 76% 30.41 in - WSW 9.2 mph - N/A   Unknown
11:51 AM 43.0 °F 37.7 °F 34.0 °F 71% 30.39 in - SW 9.2 mph 19.6 mph N/A   Unknown
12:51 PM 44.1 °F 38.6 °F 34.0 °F 68% 30.36 in - WSW 10.4 mph 18.4 mph N/A   Unknown
1:51 PM 45.0 °F 38.9 °F 35.1 °F 68% 30.35 in - SW 12.7 mph 23.0 mph N/A   Unknown
2:51 PM 45.0 °F 39.3 °F 35.1 °F 68% 30.35 in - SW 11.5 mph 20.7 mph N/A   Unknown
3:51 PM 45.0 °F 39.7 °F 36.0 °F 71% 30.33 in - SW 10.4 mph 19.6 mph N/A   Unknown
4:51 PM 45.0 °F 39.7 °F 37.0 °F 74% 30.33 in - WSW 10.4 mph 18.4 mph N/A   Unknown
5:51 PM 44.1 °F 39.5 °F 37.0 °F 76% 30.33 in - SW 8.1 mph - N/A   Unknown
6:51 PM 44.1 °F 39.5 °F 34.0 °F 68% 30.33 in - WSW 8.1 mph - N/A   Unknown
7:51 PM 45.0 °F 40.1 °F 37.0 °F 74% 30.32 in - WSW 9.2 mph 19.6 mph N/A   Unknown
8:51 PM 44.1 °F 39.0 °F 37.9 °F 79% 30.32 in - WSW 9.2 mph - N/A   Unknown
9:51 PM 44.1 °F 39.0 °F 37.9 °F 79% 30.32 in - WSW 9.2 mph 17.3 mph N/A   Unknown
10:51 PM 43.0 °F 37.2 °F 37.0 °F 80% 30.32 in - WSW 10.4 mph 19.6 mph N/A   Unknown
11:51 PM 43.0 °F 37.2 °F 37.0 °F 80% 30.32 in - WSW 10.4 mph 17.3 mph N/A   Unknown